Content
SEND FEEDBACK

Daily
Averages
Monthly
Summary
United States of America

BOSTON, MASSACHUSETTS


Home > North America > United States > Massachusetts
Elevation: 4 feet     Latitude: 42 22N     Longitude: 071 02W

WEATHER
 
SELECT A DAY
Number of Records: 205,295;   Date Range: 1/1/95 - 10/19/14
 
SHARE

PRINT THIS DATA

[ ← Previous Day ]
WEATHER ALMANAC - JULY 20, 2014
[ Next Day → ]
[ °C ]   °F
Weather ElementAverageHighLow
Temperature65.8 °F71.1 °F (11:54 am)61 °F (3:54 am)
Dewpoint59.4 °F63 °F (3:54 pm)55 °F (11:54 am)
Humidity80.3 %94 % (9:33 pm)57 % (11:54 am)
Barometer30.18 in30.22 in (8:54 am)30.15 in (5:54 pm)
Wind Speed6.9 mph12.7 mph (3:54 pm)
Weather ElementAverage
Visibility10 mi
Wind DirectionENE (66.3 °)

Weather ElementTotal
Precipitation---
Cooling Degree Days1.1 (Base 65)
Growing Degree Days16.1 (Base 50)
Averaged from 27 records on July 20, 2014
WEATHER CONDITIONS BREAKOUT
WIND DIRECTION BREAKOUT
WEATHER BY HOUR - JULY 20, 2014
[ °C ]   °F
Local TimeTemperatureDewpointHumidityBarometerVisibilityWind DirectionWind SpeedGust SpeedPrecipitationEventsConditions
1:54 AM64.0 °F57.9 °F80 %30.21 in10.0 miNNE (30°)4.6 mphOvercast
2:54 AM62.1 °F57.9 °F86 %30.20 in10.0 miEast (80°)4.6 mphMostly Cloudy
3:54 AM61.0 °F57.0 °F87 %30.19 in10.0 miCalmMostly Cloudy
4:54 AM62.1 °F55.9 °F80 %30.19 in10.0 miNorth (10°)4.6 mphMostly Cloudy
5:54 AM62.1 °F55.9 °F80 %30.19 in10.0 miNorth (360°)3.5 mphMostly Cloudy
6:54 AM64.9 °F57.0 °F75 %30.20 in10.0 miNNE (20°)4.6 mphMostly Cloudy
7:54 AM66.0 °F57.0 °F73 %30.21 in10.0 miNE (40°)5.8 mphOvercast
8:54 AM66.9 °F57.0 °F70 %30.22 in10.0 miENE (60°)6.9 mph0.00 inOvercast
9:54 AM66.9 °F55.9 °F68 %30.22 in10.0 miNE (50°)6.9 mphOvercast
10:54 AM69.1 °F57.0 °F65 %30.22 in10.0 miNE (40°)6.9 mphOvercast
11:54 AM71.1 °F55.0 °F57 %30.20 in10.0 miNE (50°)9.2 mphMostly Cloudy
12:54 PM70.0 °F59.0 °F68 %30.19 in10.0 miENE (60°)9.2 mphMostly Cloudy
1:54 PM70.0 °F59.0 °F68 %30.18 in10.0 miENE (70°)10.4 mphMostly Cloudy
2:54 PM71.1 °F60.1 °F68 %30.17 in10.0 miENE (70°)11.5 mphMostly Cloudy
3:54 PM70.0 °F63.0 °F78 %30.17 in10.0 miENE (70°)12.7 mphOvercast
4:54 PM68.0 °F63.0 °F84 %30.16 in10.0 miENE (70°)11.5 mphOvercast
5:54 PM66.9 °F62.1 °F84 %30.15 in10.0 miENE (70°)11.5 mphMostly Cloudy
6:54 PM66.9 °F62.1 °F84 %30.16 in10.0 miENE (60°)10.4 mphMostly Cloudy
7:54 PM66.0 °F62.1 °F87 %30.16 in10.0 miNE (50°)10.4 mphMostly Cloudy
8:54 PM64.9 °F62.1 °F90 %30.17 in10.0 miNNE (30°)6.9 mphScattered Clouds
9:33 PM64.4 °F62.6 °F94 %30.17 in10.0 miENE (60°)4.6 mphMostly Cloudy
9:49 PM64.4 °F60.8 °F88 %30.17 in10.0 miENE (70°)6.9 mphOvercast
9:54 PM64.0 °F61.0 °F90 %30.17 in10.0 miENE (60°)6.9 mphOvercast
10:17 PM64.4 °F60.8 °F88 %30.17 in10.0 miENE (70°)4.6 mphOvercast
10:54 PM64.0 °F61.0 °F90 %30.18 in10.0 miENE (70°)4.6 mphOvercast
11:46 PM62.6 °F60.8 °F94 %30.17 in10.0 miEast (80°)3.5 mphScattered Clouds
11:54 PM62.1 °F60.1 °F93 %30.17 in10.0 miEast (90°)3.5 mphScattered Clouds
Hourly data recorded from KBOS, located miles away from Boston, Massachusetts







STORIES FROM OUR PARTNERS